This demonstration page uses our WeatherBlox Daily Observations layout. Learn more.

Left ArrowRight Arrow

Hourly Observations for November 30, 2021

Temp ( °F °C ) Dew Point ( °F °C ) Humidity (%) Winds ( mph kmh ) Pressure ( in mb ) Visibility ( mi km ) Precip ( " mm )
12:53 am 00:53 Clear 46 7.8 24 -4.4 42 42 SSE 3 6 30.02 1017 10 16 N/A
1:53 am 01:53 Clear 45 7.2 28 -2.2 52 52 E 6 9 30.00 1016 10 16 N/A
2:53 am 02:53 Clear 38 3.3 23 -5 55 55 N N/A 30.00 1016 10 16 N/A
3:53 am 03:53 Clear 36 2.2 20 -6.7 52 52 NNE 5 7 29.99 1016 10 16 N/A
4:53 am 04:53 Clear 34 1.1 20 -6.7 56 56 N 8 13 29.98 1015 10 16 N/A
5:53 am 05:53 Clear 34 1.1 21 -6.1 59 59 N 7 11 30.01 1016 10 16 N/A
6:53 am 06:53 Clear 34 1.1 23 -5 64 64 N 3 6 30.04 1017 10 16 N/A
7:53 am 07:53 Sunny 33 0.6 23 -5 66 66 N 3 6 30.05 1018 10 16 N/A
8:53 am 08:53 Sunny 44 6.7 32 undefined 63 63 N N/A 30.06 1018 10 16 N/A
9:53 am 09:53 Sunny 53 11.7 36 2.2 52 52 N N/A 30.06 1018 10 16 N/A
10:53 am 10:53 Sunny 58 14.4 37 2.8 46 46 N N/A 30.05 1018 10 16 N/A
11:53 am 11:53 Sunny 63 17.2 35 1.7 35 35 VRB 3 6 30.03 1017 10 16 N/A
12:53 pm 12:53 Sunny 67 19.4 33 0.6 28 28 N N/A 30.00 1016 10 16 N/A
1:53 pm 13:53 Sunny 72 22.2 31 -0.6 22 22 WNW 6 9 29.96 1015 10 16 N/A
2:53 pm 14:53 Sunny 75 23.9 32 undefined 21 21 WSW 7 11 29.94 1014 10 16 N/A
3:53 pm 15:53 Sunny 77 25 32 undefined 19 19 W 5 7 29.94 1014 10 16 N/A
4:53 pm 16:53 Sunny 77 25 27 -2.8 16 16 WNW 9 15 29.94 1014 10 16 N/A
5:53 pm 17:53 Clear 70 21.1 27 -2.8 20 20 NNW 5 7 29.98 1015 10 16 N/A
6:53 pm 18:53 Clear 64 17.8 27 -2.8 25 25 N 3 6 30.01 1016 10 16 N/A
7:53 pm 19:53 Clear 57 13.9 25 -3.9 29 29 N 7 11 30.04 1017 10 16 N/A
8:53 pm 20:53 Clear 53 11.7 23 -5 31 31 NNW 10 17 30.05 1018 10 16 N/A
9:53 pm 21:53 Clear 53 11.7 24 -4.4 32 32 N 10 17 30.05 1018 10 16 N/A
10:53 pm 22:53 Clear 50 10 25 -3.9 38 38 N 10 17 30.07 1018 10 16 N/A
11:53 pm 23:53 Clear 47 8.3 25 -3.9 42 42 N 7 11 30.07 1018 10 16 N/A

Powered by AerisWeather